Regional Weather Roundup
Issued by NWS

Home | Current Version | Previous Version | Graphics & Text | Print | Product List | Glossary On
Versions: 1 2 3 4 5 6 7 8 9 10 11 12 13 14 15 16 17 18 19 20 21 22 23 24 25 26 27 28 29 30 31 32 33 34 35 36 37 38 39 40 41 42 43 44 45 46 47 48 49 50
712
ASUS43 KLOT 241704
RWRIL

ILLINOIS REGIONAL WEATHER ROUNDUP
NATIONAL WEATHER SERVICE CHICAGO/ROMEOVILLE IL
1200 PM CDT WED MAY 24 2017

NOTE: "FAIR" INDICATES FEW OR NO CLOUDS BELOW 12,000 FEET WITH NO
SIGNIFICANT WEATHER AND/OR OBSTRUCTIONS TO VISIBILITY.

* THESE STATIONS ARE NOT UNDER NWS QUALITY CONTROL. THEY ALSO MAY NOT
  REPORT WEATHER SUCH AS PRECIPITATION OR FOG.

ILZ001-002-007-009-015-016-024-241800-
NORTHWEST ILLINOIS

CITY           SKY/WX    TMP DP  RH WIND       PRES   REMARKS
MOLINE         CLOUDY    60  50  69 N8        29.61R
STERLING*      CLOUDY    55  53  93 N10       29.61F
$$

ILZ003-004-008-010-011-017-018-241800-
NORTH CENTRAL ILLINOIS

CITY           SKY/WX    TMP DP  RH WIND       PRES   REMARKS
ROCKFORD       CLOUDY    56  53  90 N10       29.63S FOG
FREEPORT*      CLOUDY    52  51  97 N5        29.64S
ROCHELLE*      CLOUDY    56  54  91 N12       29.60F
DE KALB*       CLOUDY    57  54  89 N12       29.59F
$$

ILZ005-006-012>014-019>023-241800-
NORTHEAST ILLINOIS

CITY           SKY/WX    TMP DP  RH WIND       PRES   REMARKS
CHICAGO-OHARE  CLOUDY    59  50  72 N22G28    29.56F
CHICAGO-MIDWAY CLOUDY    58  53  84 NE20      29.54F
AURORA         CLOUDY    60  53  77 N12       29.57F
LANSING*       CLOUDY    55  53  92 N6        29.55S
JOLIET*        CLOUDY    59  55  85 NE8       29.55F
WAUKEGAN       CLOUDY    57  51  80 N16G28    29.58S
DUPAGE AIRPORT CLOUDY    58  53  84 NE18G24   29.56F
WHEELING       CLOUDY    58  52  80 N16G23    29.58F
MORRIS*        CLOUDY    59  53  80 CALM      29.54F
ROMEOVILLE*    CLOUDY    57  55  92 NE16      29.55F
NORTHERLY ISL    N/A     54  50  86 N14         N/A
$$

LMZ740>746-241800-
SOUTHERN LAKE MICHIGAN

STATION/POSITION SKY/WX   TEMP    WIND        PRES    VSBY  WAVE
                          AIR SEA DIR/SP/G                  HT/PER
                          (F)     (DEG/KT/KT) (MB)    (MI)  (FT/S)
SOUTHERN BUOY              48 45   20/ 17/ 19 1001.4          2/ 4
WILMETTE HARBOR            49 52                N/A           4/ 4
HARRISON CRIB              52      10/ 19/ 22   N/A
BURNHAM HARBOR             54     350/ 12/ 15   N/A
CALUMET HARBOR             53     350/ 11/ 17 1000.5F
BURNS HARBOR               52      30/ 10/ 14 1001.0F
MICHIGAN CITY              53      10/ 12/ 14   N/A
MICHIGAN CITY 6N           52 54   20/ 12/ 14   N/A           3/ 4
ST. JOSEPH                 55 58   30/ 14/ 17 1000.1F         3/ 4
$$

ILZ025>027-034>036-040-047-049-050-058-095>099-241800-
WEST-CENTRAL ILLINOIS

CITY           SKY/WX    TMP DP  RH WIND       PRES   REMARKS
QUINCY         CLOUDY    60  50  69 NW9       29.60F
GALESBURG*     CLOUDY    59  51  74 N13       29.59F
MACOMB*        CLOUDY    60  53  78 NW12      29.61F
$$

ILZ028>032-037-038-041>044-048-051>054-059>061-241800-
CENTRAL ILLINOIS

CITY           SKY/WX    TMP DP  RH WIND       PRES   REMARKS
BLOOMINGTON    CLOUDY    59  53  80 N14       29.56S
DECATUR        PTSUNNY   64  54  69 N14       29.54F
PEORIA         PTSUNNY   62  52  69 N8        29.57S
LACON*         CLOUDY    57  54  88 N6        29.57F
LINCOLN*       PTSUNNY   64  55  70 N9        29.55F
SPRINGFIELD    FAIR      64  53  67 N12       29.57S
TAYLORVILLE    NOT AVBL
$$

ILZ033-039-045-046-055>057-062-063-241800-
EAST-CENTRAL ILLINOIS

CITY           SKY/WX    TMP DP  RH WIND       PRES   REMARKS
CHAMPAIGN      LGT RAIN  59  55  87 NW13      29.53F FOG
MATTOON        LGT RAIN  56  56 100 NW15      29.52F FOG
$$

ILZ079-100>102-241800-
SOUTHWEST ILLINOIS

CITY           SKY/WX    TMP DP  RH WIND       PRES   REMARKS
ALTON          PTSUNNY   61  48  63 NW14      29.57F
BELLEVILLE     FAIR      64  50  60 NW9G17    29.57S
CAHOKIA*       FAIR      67  47  48 N14       29.57S
SPARTA*        FAIR      64  48  55 NW12G17   29.57S
$$

ILZ064>066-069>071-074>076-080>082-084>086-088>090-092>094-241800-
SOUTH-CENTRAL ILLINOIS

CITY           SKY/WX    TMP DP  RH WIND       PRES   REMARKS
CARBONDALE     FAIR      65  50  58 NW12      29.54F
CAIRO*         FAIR      66  50  55 NW9       29.54F
EFFINGHAM*     FAIR      59  54  83 NW8       29.55S
MARION         PTSUNNY   63  52  67 N12       29.55S
MT. VERNON       N/A     62  53  72 VRB7      29.54F
CENTRALIA*     FAIR      62  53  70 N10G16    29.53F
SALEM*         PTSUNNY   63  53  70 NW10      29.54F
$$

ILZ067-068-072-073-078-083-087-091-241800-
SOUTHEAST ILLINOIS

CITY           SKY/WX    TMP DP  RH WIND       PRES   REMARKS
LAWRENCEVILLE  LGT RAIN  59  32  36 NW12      29.50F
FLORA*         PTSUNNY   61  53  75 N8        29.54S
FAIRFIELD*     PTSUNNY   60  54  79 NW6       29.52S
HARRISBURG*    CLOUDY    61  55  81 N9        29.53S
ROBINSON*      LGT RAIN  58  57  96 NW8       29.51F
CARMI*         LGT RAIN  59  57  94 NW14      29.51S
$$

ABBREVIATIONS USED IN REMARKS
   TC - TEMPERATURE IN CELSIUS
  WCI - WIND CHILL INDEX
   HX - HEAT INDEX
  VSB - VISIBILITY
$$





USA.gov is the U.S. government's official web portal to all federal, state and local government web resources and services.